DW6044 Weather Reports


time (UTC)temp
F
wind
direction
speed
knots
gust
knots
rain 1hr
in
rain 24hr
in
rain mn
in
humidity
%
barometer
mb
20260510190803 78 304 1.7 7.8 0.00 0.00 0.00 43 1013.5
20260510190603 78 295 1.7 7.8 0.00 0.00 0.00 40 1013.6
20260510190403 79 281 1.7 10.4 0.00 0.00 0.00 43 1013.6
20260510190039 79 325 0.9 0.0 0.00 0.00 0.00 44 1013.7
20260510190003 80 0 0.0 9.6 0.00 0.00 0.00 42 1013.5
20260510185903 80 279 0.9 7.8 0.00 0.00 0.00 42 1013.8
20260510185803 80 0 0.0 0.0 0.00 0.00 0.00 43 1013.5
20260510185604 79 0 0.0 0.0 0.00 0.00 0.00 47 1013.5
20260510185403 78 0 0.0 3.5 0.00 0.00 0.00 48 1013.5
20260510185203 78 0 0.0 3.5 0.00 0.00 0.00 51 1013.4
20260510184803 76 0 0.0 0.9 0.00 0.00 0.00 45 1013.5
20260510184604 76 0 0.0 0.9 0.00 0.00 0.00 44 1013.6
20260510184537 75 296 0.0 0.0 0.00 0.00 0.00 44 1013.9
20260510184403 76 0 0.0 0.9 0.00 0.00 0.00 44 1013.6
20260510184204 76 0 0.0 0.9 0.00 0.00 0.00 44 1013.6
20260510184004 76 0 0.0 2.6 0.00 0.00 0.00 45 1013.7
20260510183903 76 304 0.0 2.6 0.00 0.00 0.00 43 1014.0
20260510183803 76 0 0.0 1.7 0.00 0.00 0.00 42 1013.6
20260510183604 77 201 0.9 1.7 0.00 0.00 0.00 41 1013.6
20260510183203 78 316 1.7 2.6 0.00 0.00 0.00 41 1013.7
20260510183044 78 303 1.7 0.0 0.00 0.00 0.00 39 1014.1
20260510183004 78 315 2.6 7.8 0.00 0.00 0.00 41 1013.7
20260510183001 78 259 2.6 0.0 0.00 0.00 0.00 41 1014.0
20260510182903 78 279 0.9 10.4 0.00 0.00 0.00 41 1014.0
20260510182803 78 317 2.6 3.5 0.00 0.00 0.00 42 1013.8
20260510182603 78 273 2.6 9.6 0.00 0.00 0.00 43 1013.8
20260510182404 78 276 2.6 8.7 0.00 0.00 0.00 45 1013.7
20260510182402 78 295 1.7 13.0 0.00 0.00 0.00 44 1014.0
20260510182003 78 307 1.7 13.0 0.00 0.00 0.00 41 1013.6
20260510181903 78 320 1.7 10.4 0.00 0.00 0.00 43 1013.9
20260510181805 78 303 1.7 10.4 0.00 0.00 0.00 45 1013.7
20260510181604 78 309 1.7 6.1 0.00 0.00 0.00 42 1013.6
20260510181551 78 12 1.7 0.0 0.00 0.00 0.00 40 1013.9
20260510181532 78 302 1.7 0.0 0.00 0.00 0.00 40 1014.0
20260510181404 78 250 0.9 3.5 0.00 0.00 0.00 45 1013.7
20260510181204 78 270 1.7 11.3 0.00 0.00 0.00 43 1013.7
20260510181003 78 267 1.7 7.0 0.00 0.00 0.00 42 1013.8
20260510180903 77 283 1.7 7.0 0.00 0.00 0.00 43 1014.1
20260510180803 77 267 1.7 7.0 0.00 0.00 0.00 46 1013.8
20260510180605 77 303 1.7 4.3 0.00 0.00 0.00 45 1013.8
20260510180403 77 266 4.3 11.3 0.00 0.00 0.00 44 1014.1
20260510180046 76 257 0.9 0.0 0.00 0.00 0.00 44 1014.2
20260510180024 77 292 0.9 0.0 0.00 0.00 0.00 45 1014.2
20260510180005 77 0 0.0 10.4 0.00 0.00 0.00 45 1013.8
20260510175903 78 313 0.9 2.6 0.00 0.00 0.00 43 1014.2
20260510175804 78 289 0.9 2.6 0.00 0.00 0.00 43 1013.8
20260510175603 78 306 0.9 2.6 0.00 0.00 0.00 45 1013.8
20260510175403 78 298 0.9 7.0 0.00 0.00 0.00 42 1013.8
20260510175203 78 296 0.9 7.0 0.00 0.00 0.00 44 1013.8
20260510175003 79 338 1.7 7.0 0.00 0.00 0.00 46 1013.8
20260510174904 79 337 0.9 7.0 0.00 0.00 0.00 43 1014.2
20260510174804 79 12 1.7 7.0 0.00 0.00 0.00 43 1013.9
20260510174603 78 293 1.7 7.8 0.00 0.00 0.00 46 1013.9
20260510174553 78 283 1.7 0.0 0.00 0.00 0.00 44 1014.2
20260510174513 78 300 1.7 0.0 0.00 0.00 0.00 44 1014.2
20260510174204 78 298 1.7 8.7 0.00 0.00 0.00 45 1013.9
20260510174004 78 303 0.9 8.7 0.00 0.00 0.00 48 1013.9
20260510173904 78 321 0.9 6.1 0.00 0.00 0.00 46 1014.2
20260510173803 78 270 0.9 6.1 0.00 0.00 0.00 48 1013.9
20260510173603 77 296 0.9 6.1 0.00 0.00 0.00 48 1013.9
20260510173203 77 295 0.9 6.1 0.00 0.00 0.00 51 1014.0
20260510173111 76 305 0.9 0.0 0.00 0.00 0.00 49 1014.4
20260510173023 76 325 0.9 0.0 0.00 0.00 0.00 50 1014.3
20260510173003 77 232 0.9 3.5 0.00 0.00 0.00 50 1014.0
20260510172903 76 202 0.9 4.3 0.00 0.00 0.00 51 1014.3
20260510172804 76 0 0.0 3.5 0.00 0.00 0.00 49 1014.0
20260510172603 76 0 0.0 4.3 0.00 0.00 0.00 48 1014.1
20260510172403 76 278 0.9 3.5 0.00 0.00 0.00 48 1014.1
20260510171803 76 300 1.7 1.7 0.00 0.00 0.00 48 1014.1
20260510171603 75 307 1.7 8.7 0.00 0.00 0.00 48 1014.1
20260510171534 75 303 1.7 0.0 0.00 0.00 0.00 48 1014.5
20260510171203 74 313 0.9 5.2 0.00 0.00 0.00 51 1014.1
20260510171004 74 295 0.9 12.2 0.00 0.00 0.00 51 1014.1
20260510170903 74 318 0.9 12.2 0.00 0.00 0.00 53 1014.6
20260510170805 74 0 0.9 0.0 0.00 0.00 0.00 53 1014.2
20260510170603 74 265 0.9 1.7 0.00 0.00 0.00 50 1014.2
20260510170403 74 299 0.9 7.0 0.00 0.00 0.00 52 1014.2
20260510170203 74 307 0.9 7.0 0.00 0.00 0.00 50 1014.1
20260510170038 74 340 0.9 0.0 0.00 0.00 0.00 47 1014.5
20260510170003 75 296 0.9 6.1 0.00 0.00 0.00 47 1014.1
20260510165903 75 313 0.9 6.1 0.00 0.00 0.00 48 1014.4
20260510165803 75 0 0.0 6.1 0.00 0.00 0.00 48 1014.1
20260510165603 76 0 0.0 2.6 0.00 0.00 0.00 48 1014.1
20260510165403 76 0 0.0 6.1 0.00 0.00 0.00 47 1014.2
20260510165204 77 0 0.0 1.7 0.00 0.00 0.00 49 1014.2
20260510165004 77 0 0.0 0.0 0.00 0.00 0.00 50 1014.2
20260510164903 77 229 0.0 0.0 0.00 0.00 0.00 50 1014.5
20260510164804 77 0 0.0 0.0 0.00 0.00 0.00 50 1014.2
20260510164604 77 0 0.0 0.9 0.00 0.00 0.00 48 1014.2
20260510164507 77 214 0.0 0.0 0.00 0.00 0.00 48 1014.5
20260510164403 78 0 0.0 3.5 0.00 0.00 0.00 46 1014.1
20260510164203 78 0 0.0 3.5 0.00 0.00 0.00 48 1014.1
20260510164004 78 0 0.0 0.9 0.00 0.00 0.00 47 1014.0
20260510163904 78 159 0.0 7.8 0.00 0.00 0.00 52 1014.4
20260510163804 78 0 0.0 0.9 0.00 0.00 0.00 52 1014.0
20260510163404 77 0 0.0 1.7 0.00 0.00 0.00 53 1014.0
20260510163402 77 246 0.0 1.7 0.00 0.00 0.00 52 1014.4
20260510163203 77 0 0.0 0.9 0.00 0.00 0.00 52 1014.0
20260510163051 77 253 0.0 0.0 0.00 0.00 0.00 51 1014.3
20260510163017 77 253 0.0 0.0 0.00 0.00 0.00 51 1014.3
20260510163004 77 0 0.0 0.9 0.00 0.00 0.00 51 1013.9
20260510162603 77 0 0.0 1.7 0.00 0.00 0.00 54 1013.9
20260510162404 77 0 0.0 0.9 0.00 0.00 0.00 54 1014.0
20260510162203 76 0 0.0 0.0 0.00 0.00 0.00 52 1014.0
20260510162004 76 0 0.0 0.0 0.00 0.00 0.00 50 1014.0
20260510161904 76 201 0.0 1.7 0.00 0.00 0.00 55 1014.4
20260510161803 76 0 0.0 1.7 0.00 0.00 0.00 54 1014.0
20260510161604 75 0 0.0 1.7 0.00 0.00 0.00 54 1013.9
20260510161558 75 315 0.0 0.0 0.00 0.00 0.00 54 1014.3
20260510161520 75 315 0.0 0.0 0.00 0.00 0.00 52 1014.4
20260510161403 75 0 0.0 3.5 0.00 0.00 0.00 50 1013.9
20260510161204 76 0 0.0 3.5 0.00 0.00 0.00 50 1013.9
20260510161003 76 0 0.0 3.5 0.00 0.00 0.00 53 1013.9
20260510160903 76 279 0.0 2.6 0.00 0.00 0.00 55 1014.3
20260510160605 75 0 0.0 0.0 0.00 0.00 0.00 58 1013.9
20260510160404 75 0 0.9 0.0 0.00 0.00 0.00 53 1013.9
20260510160203 75 284 1.7 2.6 0.00 0.00 0.00 56 1013.9
20260510160021 74 302 1.7 0.0 0.00 0.00 0.00 58 1014.3
20260510155902 75 288 0.9 5.2 0.00 0.00 0.00 53 1014.2
20260510155603 74 302 1.7 11.3 0.00 0.00 0.00 56 1013.8
20260510155404 74 302 1.7 11.3 0.00 0.00 0.00 51 1013.8
20260510155203 74 295 0.9 7.8 0.00 0.00 0.00 53 1013.9
20260510155004 74 298 0.9 7.8 0.00 0.00 0.00 57 1014.0
20260510154903 74 293 1.7 10.4 0.00 0.00 0.00 54 1014.3
20260510154804 74 317 0.9 9.6 0.00 0.00 0.00 56 1013.9
20260510154533 74 298 0.0 0.0 0.00 0.00 0.00 56 1014.3
20260510154404 74 0 0.0 3.5 0.00 0.00 0.00 56 1014.0
20260510154203 74 0 0.0 3.5 0.00 0.00 0.00 53 1014.0
20260510154003 74 0 0.0 1.7 0.00 0.00 0.00 55 1014.1
20260510153903 74 227 0.0 1.7 0.00 0.00 0.00 56 1014.5
20260510153804 74 0 0.0 0.9 0.00 0.00 0.00 57 1014.1
20260510153603 74 0 0.0 0.9 0.00 0.00 0.00 61 1014.1
20260510153203 73 0 0.0 1.7 0.00 0.00 0.00 59 1014.2
20260510153043 72 250 0.0 0.0 0.00 0.00 0.00 59 1014.6
20260510153004 73 0 0.0 1.7 0.00 0.00 0.00 58 1014.2
20260510152902 73 259 0.9 2.6 0.00 0.00 0.00 56 1014.5
20260510152804 73 0 0.0 2.6 0.00 0.00 0.00 56 1014.2
20260510152403 73 296 0.9 1.7 0.00 0.00 0.00 60 1014.2
20260510152203 73 309 0.9 2.6 0.00 0.00 0.00 57 1014.2
20260510152003 73 301 0.9 4.3 0.00 0.00 0.00 57 1014.2
20260510151804 73 304 0.9 9.6 0.00 0.00 0.00 58 1014.2
20260510151604 73 0 0.0 9.6 0.00 0.00 0.00 55 1014.2
20260510151540 73 291 0.0 0.0 0.00 0.00 0.00 55 1014.6
20260510151506 73 257 0.0 0.0 0.00 0.00 0.00 57 1014.6
20260510151403 73 0 0.0 3.5 0.00 0.00 0.00 56 1014.1
20260510151204 73 0 0.0 3.5 0.00 0.00 0.00 64 1014.2
20260510151004 72 0 0.0 0.0 0.00 0.00 0.00 63 1014.2
20260510150903 72 311 0.0 0.0 0.00 0.00 0.00 64 1014.5
20260510150603 72 0 0.0 0.0 0.00 0.00 0.00 62 1014.1
20260510150403 71 0 0.9 0.0 0.00 0.00 0.00 64 1014.1
20260510150203 71 0 0.9 0.0 0.00 0.00 0.00 62 1014.0
20260510150055 71 311 0.9 0.0 0.00 0.00 0.00 60 1014.4
20260510150017 71 311 0.9 0.0 0.00 0.00 0.00 59 1014.5
20260510150003 71 309 0.9 0.9 0.00 0.00 0.00 59 1014.0
20260510145803 71 307 0.9 2.6 0.00 0.00 0.00 60 1014.0
20260510145603 71 294 0.9 7.8 0.00 0.00 0.00 58 1014.0
20260510145404 71 292 0.9 7.8 0.00 0.00 0.00 59 1014.1
20260510145003 71 297 0.9 2.6 0.00 0.00 0.00 65 1014.0
20260510144903 71 267 0.0 0.9 0.00 0.00 0.00 63 1014.4
20260510144604 70 0 0.9 0.0 0.00 0.00 0.00 63 1014.1
20260510144602 70 267 0.9 0.0 0.00 0.00 0.00 63 1014.4
20260510144539 70 267 0.9 0.0 0.00 0.00 0.00 61 1014.4
20260510144405 70 297 0.9 7.0 0.00 0.00 0.00 59 1014.0
20260510144203 70 0 0.0 7.0 0.00 0.00 0.00 62 1014.1
20260510144003 70 0 0.0 4.3 0.00 0.00 0.00 62 1014.0
20260510143904 70 302 0.9 6.1 0.00 0.00 0.00 61 1014.4
20260510143804 70 0 0.0 6.1 0.00 0.00 0.00 60 1014.0
20260510143604 70 0 0.0 0.0 0.00 0.00 0.00 62 1014.0
20260510143404 69 0 0.0 0.0 0.00 0.00 0.00 63 1013.9
20260510143204 69 0 0.0 0.9 0.00 0.00 0.00 64 1013.9
20260510143030 68 303 0.0 0.0 0.00 0.00 0.00 66 1014.3
20260510142903 69 309 0.0 1.7 0.00 0.00 0.00 63 1014.3
20260510142804 69 0 0.0 1.7 0.00 0.00 0.00 62 1013.8
20260510142203 68 290 0.9 7.0 0.00 0.00 0.00 63 1013.9
20260510142004 68 0 0.0 1.7 0.00 0.00 0.00 66 1013.9
20260510141803 68 299 0.9 2.6 0.00 0.00 0.00 66 1013.9
20260510141605 67 293 0.9 3.5 0.00 0.00 0.00 64 1013.8
20260510141536 67 298 0.9 0.0 0.00 0.00 0.00 67 1014.3
20260510141403 67 0 0.0 3.5 0.00 0.00 0.00 64 1013.8
20260510141004 66 0 0.0 5.2 0.00 0.00 0.00 67 1013.8
20260510140904 66 10 0.9 5.2 0.00 0.00 0.00 67 1014.2
20260510140804 66 0 0.0 5.2 0.00 0.00 0.00 70 1013.8
20260510140604 66 0 0.0 0.0 0.00 0.00 0.00 72 1013.9
20260510140203 65 0 0.0 2.6 0.00 0.00 0.00 70 1014.0
20260510140037 65 256 0.0 0.0 0.00 0.00 0.00 70 1014.4
20260510140005 65 0 0.0 0.0 0.00 0.00 0.00 70 1013.9
20260510135804 65 0 0.0 1.7 0.00 0.00 0.00 70 1013.9
20260510135603 65 0 0.0 1.7 0.00 0.00 0.00 70 1013.9
20260510135405 65 0 0.0 2.6 0.00 0.00 0.00 70 1013.9
20260510135203 64 0 0.0 0.0 0.00 0.00 0.00 74 1013.9
20260510135004 64 243 0.9 1.7 0.00 0.00 0.00 70 1013.9
20260510134903 64 0 0.9 5.2 0.00 0.00 0.00 70 1014.4
20260510134804 64 312 0.9 5.2 0.00 0.00 0.00 70 1013.9
20260510134603 64 0 0.0 5.2 0.00 0.00 0.00 72 1014.0
20260510134547 63 5 0.0 0.0 0.00 0.00 0.00 72 1014.4
20260510134404 64 0 0.0 0.9 0.00 0.00 0.00 71 1014.0
20260510134004 63 0 0.0 0.0 0.00 0.00 0.00 76 1014.0
20260510133903 63 293 0.0 0.0 0.00 0.00 0.00 74 1014.5
20260510133803 63 0 0.0 0.0 0.00 0.00 0.00 74 1014.0
20260510133603 63 0 0.0 0.0 0.00 0.00 0.00 77 1014.0
20260510133203 62 0 0.0 2.6 0.00 0.00 0.00 77 1014.0
20260510133038 62 292 0.0 0.0 0.00 0.00 0.00 76 1014.4
20260510133004 62 0 0.0 0.0 0.00 0.00 0.00 79 1013.9
20260510133002 61 287 0.0 0.0 0.00 0.00 0.00 79 1014.4
20260510132903 62 165 0.0 0.0 0.00 0.00 0.00 79 1014.4
20260510132803 62 0 0.0 0.0 0.00 0.00 0.00 79 1014.0
20260510132403 62 0 0.0 0.0 0.00 0.00 0.00 83 1013.9
20260510132004 61 0 0.0 0.0 0.00 0.00 0.00 82 1013.9
20260510131903 61 165 0.0 0.9 0.00 0.00 0.00 81 1014.4
20260510131803 61 0 0.0 0.9 0.00 0.00 0.00 81 1013.9
20260510131603 61 0 0.0 0.9 0.00 0.00 0.00 83 1013.9
20260510131541 60 165 0.0 0.0 0.00 0.00 0.00 83 1014.3
20260510131502 60 225 0.0 0.0 0.00 0.00 0.00 83 1014.3
20260510131403 61 0 0.0 0.0 0.00 0.00 0.00 85 1013.9
20260510131203 60 0 0.0 0.0 0.00 0.00 0.00 85 1013.8
20260510131003 60 0 0.0 0.0 0.00 0.00 0.00 85 1013.8
20260510130804 60 0 0.0 0.0 0.00 0.00 0.00 84 1013.7
20260510130603 60 0 0.0 0.0 0.00 0.00 0.00 87 1013.7
20260510130404 59 0 0.0 0.0 0.00 0.00 0.00 86 1013.7
20260510130204 59 0 0.0 0.0 0.00 0.00 0.00 87 1013.7
20260510130042 58 286 0.0 0.0 0.00 0.00 0.00 85 1014.3
20260510130005 58 286 0.0 0.0 0.00 0.00 0.00 85 1014.3
20260510125903 58 286 0.0 0.9 0.00 0.00 0.00 86 1014.3
20260510125804 58 0 0.0 0.0 0.00 0.00 0.00 87 1013.8
20260510125604 58 0 0.0 0.9 0.00 0.00 0.00 89 1013.9
20260510125405 58 0 0.0 0.0 0.00 0.00 0.00 90 1013.9
20260510125204 57 0 0.0 0.0 0.00 0.00 0.00 89 1014.0
20260510125005 57 0 0.0 0.0 0.00 0.00 0.00 91 1014.0
20260510124903 57 290 0.0 0.0 0.00 0.00 0.00 91 1014.4
20260510124804 56 0 0.0 0.0 0.00 0.00 0.00 91 1014.0
20260510124605 56 0 0.0 0.0 0.00 0.00 0.00 93 1014.0
20260510124550 56 256 0.0 0.0 0.00 0.00 0.00 93 1014.4
20260510124511 56 257 0.0 0.0 0.00 0.00 0.00 94 1014.5
20260510124403 56 256 0.0 0.0 0.00 0.00 0.00 94 1014.4
20260510124203 56 0 0.0 0.0 0.00 0.00 0.00 94 1013.9
20260510124004 56 0 0.0 0.0 0.00 0.00 0.00 95 1013.8
20260510123904 55 256 0.0 0.0 0.00 0.00 0.00 95 1014.3
20260510123803 55 0 0.0 0.0 0.00 0.00 0.00 95 1013.9
20260510123604 55 0 0.0 0.0 0.00 0.00 0.00 95 1013.9
20260510123403 55 0 0.0 0.0 0.00 0.00 0.00 96 1013.8
20260510123204 55 0 0.0 0.0 0.00 0.00 0.00 96 1013.9
20260510123052 54 256 0.0 0.0 0.00 0.00 0.00 96 1014.4
20260510123015 54 256 0.0 0.0 0.00 0.00 0.00 96 1014.3
20260510123004 54 0 0.0 0.0 0.00 0.00 0.00 96 1013.9
20260510122904 54 256 0.0 0.0 0.00 0.00 0.00 96 1014.4
20260510122803 54 0 0.0 0.0 0.00 0.00 0.00 96 1013.9
20260510122403 54 0 0.0 0.0 0.00 0.00 0.00 96 1013.9
20260510122203 54 0 0.0 0.0 0.00 0.00 0.00 96 1013.8
20260510122004 53 0 0.0 0.0 0.00 0.00 0.00 96 1013.8
20260510121804 53 0 0.0 0.0 0.00 0.00 0.00 96 1013.8
20260510121603 53 0 0.0 0.0 0.00 0.00 0.00 96 1013.8
20260510121559 53 256 0.0 0.0 0.00 0.00 0.00 96 1014.3
20260510121522 52 256 0.0 0.0 0.00 0.00 0.00 96 1014.3
20260510121403 53 0 0.0 0.0 0.00 0.00 0.00 96 1013.8
20260510121204 53 0 0.0 0.0 0.00 0.00 0.00 96 1013.8
20260510120904 52 256 0.0 0.0 0.00 0.00 0.00 96 1014.2
20260510120803 52 0 0.0 0.0 0.00 0.00 0.00 96 1013.7
20260510120604 52 0 0.0 0.0 0.00 0.00 0.00 96 1013.7
20260510120403 52 256 0.0 0.0 0.00 0.00 0.00 96 1014.2
20260510120204 52 0 0.0 0.0 0.00 0.00 0.00 96 1013.7
20260510120030 51 256 0.0 0.0 0.00 0.00 0.00 96 1014.2
20260510120004 52 0 0.0 0.0 0.00 0.00 0.00 96 1013.7
20260510115803 52 0 0.0 0.0 0.00 0.00 0.00 96 1013.7
20260510115203 51 0 0.0 0.0 0.00 0.00 0.00 96 1013.6
20260510114804 51 0 0.0 0.0 0.00 0.00 0.00 96 1013.7
20260510114534 50 331 0.0 0.0 0.00 0.00 0.00 96 1014.1
20260510114403 51 331 0.0 0.0 0.00 0.00 0.00 96 1014.1
20260510114204 50 0 0.0 0.0 0.00 0.00 0.00 96 1013.6
20260510113903 50 116 0.0 0.0 0.00 0.00 0.00 95 1014.0
20260510113803 50 0 0.0 0.0 0.00 0.00 0.00 95 1013.5
20260510113603 50 0 0.0 0.0 0.00 0.00 0.00 95 1013.4
20260510113403 50 0 0.0 0.0 0.00 0.00 0.00 95 1013.4
20260510113204 50 0 0.0 0.9 0.00 0.00 0.00 95 1013.3
20260510113045 50 115 0.0 0.0 0.00 0.00 0.00 95 1013.7
20260510113004 50 0 0.0 0.9 0.00 0.00 0.00 95 1013.3
20260510112903 50 113 0.0 0.0 0.00 0.00 0.00 95 1013.8
20260510112803 50 0 0.0 0.0 0.00 0.00 0.00 95 1013.3
20260510112403 50 0 0.0 0.0 0.00 0.00 0.00 96 1013.2
20260510112204 50 0 0.0 0.0 0.00 0.00 0.00 96 1013.2
20260510111903 50 338 0.0 0.0 0.00 0.00 0.00 96 1013.7
20260510111805 50 0 0.0 0.0 0.00 0.00 0.00 96 1013.3
20260510111604 50 0 0.0 0.0 0.00 0.00 0.00 95 1013.2
20260510111557 49 338 0.0 0.0 0.00 0.00 0.00 95 1013.7
20260510111513 49 337 0.0 0.0 0.00 0.00 0.00 95 1013.7
20260510111404 50 0 0.0 0.0 0.00 0.00 0.00 95 1013.1
20260510111204 50 0 0.0 0.0 0.00 0.00 0.00 95 1013.2
20260510110904 50 338 0.0 0.0 0.00 0.00 0.00 96 1013.6
20260510110804 50 0 0.0 0.0 0.00 0.00 0.00 96 1013.1
20260510110605 50 0 0.0 0.0 0.00 0.00 0.00 96 1013.1
20260510110404 50 0 0.0 0.0 0.00 0.00 0.00 96 1013.1
20260510110203 49 0 0.0 0.0 0.00 0.00 0.00 96 1013.1
20260510110033 49 337 0.0 0.0 0.00 0.00 0.00 96 1013.6
20260510110005 49 0 0.0 0.0 0.00 0.00 0.00 96 1013.1
20260510105903 49 338 0.0 0.0 0.00 0.00 0.00 95 1013.5
20260510105803 49 0 0.0 0.0 0.00 0.00 0.00 95 1013.0
20260510105603 49 0 0.0 0.0 0.00 0.00 0.00 96 1013.0
20260510105404 49 0 0.0 0.0 0.00 0.00 0.00 96 1013.0
20260510105204 49 0 0.0 0.0 0.00 0.00 0.00 96 1013.0
20260510105003 49 0 0.0 0.0 0.00 0.00 0.00 96 1013.1
20260510104903 49 3 0.0 0.0 0.00 0.00 0.00 96 1013.6
20260510104804 49 0 0.0 0.0 0.00 0.00 0.00 96 1013.1
20260510104604 49 0 0.0 0.0 0.00 0.00 0.00 96 1013.0
20260510104524 49 5 0.0 0.0 0.00 0.00 0.00 96 1013.4
20260510104403 49 3 0.0 0.0 0.00 0.00 0.00 96 1013.4
20260510104204 49 0 0.0 0.0 0.00 0.00 0.00 96 1012.9
20260510103905 49 3 0.0 0.0 0.00 0.00 0.00 96 1013.4
20260510103804 48 0 0.0 0.0 0.00 0.00 0.00 96 1013.0
20260510103404 48 0 0.0 0.0 0.00 0.00 0.00 96 1012.9
20260510103203 48 0 0.0 0.0 0.00 0.00 0.00 95 1012.8
20260510103039 47 5 0.0 0.0 0.00 0.00 0.00 95 1013.4
20260510102904 48 3 0.0 0.0 0.00 0.00 0.00 95 1013.3
20260510102803 48 0 0.0 0.0 0.00 0.00 0.00 95 1012.6
20260510102404 48 0 0.0 0.0 0.00 0.00 0.00 95 1012.6
20260510102205 48 0 0.0 0.0 0.00 0.00 0.00 95 1012.6
20260510102003 48 0 0.0 0.0 0.00 0.00 0.00 95 1012.6
20260510101903 47 4 0.0 0.0 0.00 0.00 0.00 95 1013.1
20260510101804 48 0 0.0 0.0 0.00 0.00 0.00 95 1012.5
20260510101603 48 0 0.0 0.0 0.00 0.00 0.00 95 1012.5
20260510101538 47 360 0.0 0.0 0.00 0.00 0.00 95 1013.1
20260510101503 47 360 0.0 0.0 0.00 0.00 0.00 95 1013.1
20260510101404 48 0 0.0 0.0 0.00 0.00 0.00 95 1012.5
20260510101205 47 0 0.0 0.0 0.00 0.00 0.00 95 1012.5
20260510101003 47 0 0.0 0.0 0.00 0.00 0.00 95 1012.5
20260510100904 47 4 0.0 0.0 0.00 0.00 0.00 95 1013.1
20260510100804 47 0 0.0 0.0 0.00 0.00 0.00 95 1012.5
20260510100603 47 0 0.0 0.0 0.00 0.00 0.00 95 1012.5
20260510100204 47 0 0.0 0.0 0.00 0.00 0.00 95 1012.4
20260510100055 47 5 0.0 0.0 0.00 0.00 0.00 95 1012.8
20260510100013 47 360 0.0 0.0 0.00 0.00 0.00 95 1012.8
20260510100004 47 0 0.0 0.0 0.00 0.00 0.00 95 1012.3
20260510095903 47 3 0.0 0.0 0.00 0.00 0.00 95 1012.7
20260510095805 47 0 0.0 0.0 0.00 0.00 0.00 95 1012.2
20260510095604 47 0 0.0 0.0 0.00 0.00 0.00 94 1012.2
20260510095204 47 0 0.0 0.0 0.00 0.00 0.00 94 1012.2
20260510095003 47 0 0.0 0.0 0.00 0.00 0.00 94 1012.1
20260510094903 47 3 0.0 0.0 0.00 0.00 0.00 94 1012.5
20260510094805 48 0 0.0 0.0 0.00 0.00 0.00 94 1012.1
20260510094603 48 0 0.0 0.0 0.00 0.00 0.00 94 1012.0
20260510094552 47 360 0.0 0.0 0.00 0.00 0.00 94 1012.5
20260510094516 47 5 0.0 0.0 0.00 0.00 0.00 94 1012.5
20260510094404 48 4 0.0 0.0 0.00 0.00 0.00 94 1012.5
20260510094204 48 0 0.0 0.0 0.00 0.00 0.00 94 1012.0
20260510094004 48 0 0.0 0.0 0.00 0.00 0.00 94 1012.0
20260510093803 48 0 0.0 0.0 0.00 0.00 0.00 94 1011.9
20260510093603 48 0 0.0 0.0 0.00 0.00 0.00 94 1012.0
20260510093404 48 0 0.0 0.0 0.00 0.00 0.00 94 1011.9
20260510093203 48 0 0.0 0.0 0.00 0.00 0.00 94 1011.9
20260510093100 48 360 0.0 0.0 0.00 0.00 0.00 94 1012.4
20260510093026 48 5 0.0 0.0 0.00 0.00 0.00 94 1012.4
20260510093003 48 0 0.0 0.0 0.00 0.00 0.00 94 1011.9
20260510092904 48 3 0.0 0.0 0.00 0.00 0.00 94 1012.4
20260510092804 48 0 0.0 0.0 0.00 0.00 0.00 94 1011.8
20260510092603 48 0 0.0 0.0 0.00 0.00 0.00 94 1011.8
20260510092403 48 3 0.0 0.0 0.00 0.00 0.00 94 1012.2
20260510092003 48 0 0.0 0.0 0.00 0.00 0.00 94 1011.8
20260510091903 48 3 0.0 0.0 0.00 0.00 0.00 95 1012.3
20260510091804 48 0 0.0 0.0 0.00 0.00 0.00 95 1011.8
20260510091604 48 0 0.0 0.0 0.00 0.00 0.00 95 1011.8
20260510091600 48 5 0.0 0.0 0.00 0.00 0.00 95 1012.3
20260510091523 48 360 0.0 0.0 0.00 0.00 0.00 95 1012.4
20260510091404 48 4 0.0 0.0 0.00 0.00 0.00 95 1012.4
20260510091204 48 0 0.0 0.0 0.00 0.00 0.00 95 1011.9
20260510091004 48 0 0.0 0.0 0.00 0.00 0.00 95 1011.9
20260510090905 48 4 0.0 0.0 0.00 0.00 0.00 95 1012.3
20260510090804 48 0 0.0 0.0 0.00 0.00 0.00 95 1011.9
20260510090604 48 0 0.0 0.0 0.00 0.00 0.00 95 1011.9
20260510090404 48 0 0.0 0.0 0.00 0.00 0.00 95 1011.9
20260510090203 48 0 0.0 0.0 0.00 0.00 0.00 95 1011.8
20260510090033 48 5 0.0 0.0 0.00 0.00 0.00 95 1012.3
20260510090004 48 0 0.0 0.0 0.00 0.00 0.00 95 1011.8
20260510085904 48 3 0.0 0.0 0.00 0.00 0.00 95 1012.3
20260510085803 48 0 0.0 0.0 0.00 0.00 0.00 95 1011.8
20260510085604 48 0 0.0 0.0 0.00 0.00 0.00 95 1011.8
20260510085404 48 0 0.0 0.0 0.00 0.00 0.00 94 1011.8
20260510085205 48 0 0.0 0.0 0.00 0.00 0.00 95 1011.9
20260510085004 48 0 0.0 0.0 0.00 0.00 0.00 94 1011.9
20260510084904 48 4 0.0 0.0 0.00 0.00 0.00 94 1012.4
20260510084805 48 0 0.0 0.0 0.00 0.00 0.00 94 1011.9
20260510084605 48 0 0.0 0.0 0.00 0.00 0.00 94 1011.9
20260510084537 48 360 0.0 0.0 0.00 0.00 0.00 94 1012.5
20260510084404 48 4 0.0 0.0 0.00 0.00 0.00 94 1012.5
20260510084005 48 0 0.0 0.0 0.00 0.00 0.00 94 1012.1
20260510083903 48 4 0.0 0.0 0.00 0.00 0.00 94 1012.6
20260510083803 48 0 0.0 0.0 0.00 0.00 0.00 94 1012.1
20260510083604 48 0 0.0 0.0 0.00 0.00 0.00 94 1011.9
20260510083204 49 0 0.0 0.0 0.00 0.00 0.00 94 1011.9
20260510083043 48 5 0.0 0.0 0.00 0.00 0.00 94 1012.4
20260510083002 48 360 0.0 0.0 0.00 0.00 0.00 94 1012.4
20260510082904 49 4 0.0 0.0 0.00 0.00 0.00 94 1012.5
20260510082804 49 0 0.0 0.0 0.00 0.00 0.00 94 1012.0
20260510082604 49 0 0.0 0.0 0.00 0.00 0.00 94 1012.0
20260510082404 49 0 0.0 0.0 0.00 0.00 0.00 94 1012.1
20260510082203 49 0 0.0 0.0 0.00 0.00 0.00 94 1012.0
20260510081903 49 3 0.0 0.0 0.00 0.00 0.00 94 1012.5
20260510081803 49 0 0.0 0.0 0.00 0.00 0.00 94 1012.0
20260510081604 49 0 0.0 0.0 0.00 0.00 0.00 94 1011.9
20260510081543 49 5 0.0 0.0 0.00 0.00 0.00 94 1012.4
20260510081508 49 5 0.0 0.0 0.00 0.00 0.00 94 1012.4
20260510081404 49 3 0.0 0.0 0.00 0.00 0.00 94 1012.4
20260510081204 49 0 0.0 0.0 0.00 0.00 0.00 94 1012.2
20260510081005 49 0 0.0 0.0 0.00 0.00 0.00 95 1011.9
20260510080904 49 4 0.0 0.0 0.00 0.00 0.00 95 1012.3
20260510080804 49 0 0.0 0.0 0.00 0.00 0.00 95 1011.8
20260510080035 49 5 0.0 0.0 0.00 0.00 0.00 95 1012.5
20260510075903 49 4 0.0 2.6 0.00 0.00 0.00 95 1012.6
20260510075803 49 0 0.9 0.0 0.00 0.00 0.00 95 1011.8
20260510075604 49 5 0.9 3.5 0.00 0.00 0.00 95 1012.1
20260510075404 49 6 0.9 3.5 0.00 0.00 0.00 95 1012.0
20260510075203 49 0 0.9 0.0 0.00 0.00 0.00 95 1011.4
20260510075004 49 14 0.9 4.3 0.00 0.00 0.00 95 1011.5
20260510074904 49 9 1.7 4.3 0.00 0.00 0.00 95 1012.3
20260510074804 48 0 0.0 4.3 0.00 0.00 0.00 94 1011.9
20260510074604 49 0 0.0 4.3 0.00 0.00 0.00 95 1011.4
20260510074534 48 126 0.0 0.0 0.00 0.00 0.00 95 1012.0
20260510074204 49 0 0.0 0.0 0.00 0.00 0.00 95 1011.3
20260510074004 49 0 0.0 0.0 0.00 0.00 0.00 95 1011.3
20260510073904 48 127 0.0 0.0 0.00 0.00 0.00 95 1011.8
20260510073605 48 0 0.0 0.0 0.00 0.00 0.00 95 1011.4
20260510073404 48 0 0.0 0.0 0.00 0.00 0.00 95 1011.4
20260510073204 48 0 0.0 0.0 0.00 0.00 0.00 94 1011.3
20260510073045 48 127 0.0 0.0 0.00 0.00 0.00 94 1011.8
20260510073005 48 126 0.0 0.0 0.00 0.00 0.00 94 1011.8
20260510073003 48 0 0.0 0.0 0.00 0.00 0.00 94 1011.3
20260510072904 48 127 0.0 0.0 0.00 0.00 0.00 94 1011.8
20260510072805 48 0 0.0 0.0 0.00 0.00 0.00 94 1011.3
20260510072604 48 0 0.0 0.0 0.00 0.00 0.00 94 1011.2
20260510072204 48 0 0.0 0.0 0.00 0.00 0.00 94 1011.2
20260510071903 48 127 0.0 0.0 0.00 0.00 0.00 94 1011.7
20260510071804 48 0 0.0 0.0 0.00 0.00 0.00 94 1011.2
20260510071604 48 0 0.0 0.0 0.00 0.00 0.00 94 1011.2
20260510071554 48 127 0.0 0.0 0.00 0.00 0.00 94 1011.7
20260510071510 48 127 0.0 0.0 0.00 0.00 0.00 94 1011.7
20260510071404 48 0 0.0 0.0 0.00 0.00 0.00 94 1011.2
20260510071204 48 0 0.0 0.0 0.00 0.00 0.00 94 1011.2
20260510071004 49 0 0.0 0.0 0.00 0.00 0.00 94 1011.1
20260510070603 48 0 0.0 0.0 0.00 0.00 0.00 94 1011.1
20260510070404 49 0 0.0 0.0 0.00 0.00 0.00 94 1011.1
20260510070059 48 126 0.0 0.0 0.00 0.00 0.00 94 1011.7
20260510070028 48 127 0.0 0.0 0.00 0.00 0.00 94 1011.7
20260510070005 49 0 0.0 0.0 0.00 0.00 0.00 94 1011.1
20260510065805 49 0 0.0 0.0 0.00 0.00 0.00 94 1011.1
20260510065604 49 0 0.0 0.0 0.00 0.00 0.00 94 1011.1
20260510065404 49 127 0.0 0.0 0.00 0.00 0.00 94 1011.5
20260510065204 49 0 0.0 0.0 0.00 0.00 0.00 94 1011.0
20260510065004 49 0 0.0 0.0 0.00 0.00 0.00 94 1011.0
20260510064904 49 127 0.0 0.0 0.00 0.00 0.00 94 1011.4
20260510064804 49 0 0.0 0.0 0.00 0.00 0.00 94 1010.9
20260510064605 49 0 0.0 0.0 0.00 0.00 0.00 94 1010.8
20260510064532 48 127 0.0 0.0 0.00 0.00 0.00 94 1011.3
20260510064403 49 0 0.0 0.0 0.00 0.00 0.00 94 1010.8
20260510064204 49 0 0.0 0.0 0.00 0.00 0.00 94 1010.7
20260510064003 49 0 0.0 0.0 0.00 0.00 0.00 94 1010.7
20260510063905 49 127 0.0 0.0 0.00 0.00 0.00 94 1011.2
20260510063404 49 0 0.0 0.0 0.00 0.00 0.00 94 1010.7
20260510063204 49 0 0.0 0.0 0.00 0.00 0.00 93 1010.7
20260510063036 48 126 0.0 0.0 0.00 0.00 0.00 93 1011.3
20260510063004 49 0 0.0 0.0 0.00 0.00 0.00 93 1010.7
20260510062904 49 127 0.0 0.0 0.00 0.00 0.00 93 1011.3
20260510062803 49 0 0.0 0.0 0.00 0.00 0.00 93 1010.8
20260510062603 49 0 0.0 0.0 0.00 0.00 0.00 94 1010.8
20260510062405 49 0 0.0 0.0 0.00 0.00 0.00 94 1010.8
20260510062205 49 0 0.0 0.0 0.00 0.00 0.00 94 1010.8
20260510062004 49 0 0.0 0.0 0.00 0.00 0.00 94 1010.7
20260510061905 49 127 0.0 0.0 0.00 0.00 0.00 94 1011.2
20260510061804 49 0 0.0 0.0 0.00 0.00 0.00 94 1010.7
20260510061603 49 0 0.0 0.0 0.00 0.00 0.00 93 1010.7
20260510061541 49 127 0.0 0.0 0.00 0.00 0.00 93 1011.1
20260510061501 49 126 0.0 0.0 0.00 0.00 0.00 93 1011.2
20260510061405 49 0 0.0 0.0 0.00 0.00 0.00 93 1010.7
20260510061204 49 0 0.0 0.0 0.00 0.00 0.00 94 1010.7
20260510061004 49 0 0.0 0.0 0.00 0.00 0.00 94 1010.7
20260510060903 49 127 0.0 0.0 0.00 0.00 0.00 94 1011.2
20260510060804 49 0 0.0 0.0 0.00 0.00 0.00 94 1010.8
20260510060603 49 0 0.0 0.0 0.00 0.00 0.00 94 1010.8
20260510060404 49 0 0.0 0.0 0.00 0.00 0.00 94 1010.9
20260510060204 49 0 0.0 0.0 0.00 0.00 0.00 94 1010.9
20260510060053 49 126 0.0 0.0 0.00 0.00 0.00 94 1011.4
20260510060008 49 127 0.0 0.0 0.00 0.00 0.00 94 1011.4
20260510060004 49 0 0.0 0.0 0.00 0.00 0.00 94 1011.0
20260510055903 49 127 0.0 0.0 0.00 0.00 0.00 94 1011.4
20260510055804 49 0 0.0 0.0 0.00 0.00 0.00 94 1010.9
20260510055605 49 0 0.0 0.0 0.00 0.00 0.00 94 1011.0
20260510055405 49 0 0.0 0.0 0.00 0.00 0.00 94 1010.9
20260510055203 49 0 0.0 0.0 0.00 0.00 0.00 94 1011.0
20260510055004 49 0 0.0 0.0 0.00 0.00 0.00 94 1011.0
20260510054905 49 127 0.0 0.0 0.00 0.00 0.00 94 1011.4
20260510054803 49 0 0.0 0.0 0.00 0.00 0.00 93 1011.0
20260510054605 50 0 0.0 0.0 0.00 0.00 0.00 93 1011.0
20260510054547 49 127 0.0 0.0 0.00 0.00 0.00 93 1011.4
20260510054515 49 126 0.0 0.0 0.00 0.00 0.00 93 1011.4
20260510054205 50 0 0.0 0.0 0.00 0.00 0.00 93 1010.9
20260510054004 50 0 0.0 0.0 0.00 0.00 0.00 93 1011.0
20260510053903 49 127 0.0 0.0 0.00 0.00 0.00 93 1011.4
20260510053803 50 0 0.0 0.0 0.00 0.00 0.00 93 1011.0
20260510053604 50 0 0.0 0.0 0.00 0.00 0.00 93 1010.9
20260510053203 50 0 0.0 0.0 0.00 0.00 0.00 93 1010.9
20260510053055 49 127 0.0 0.0 0.00 0.00 0.00 93 1011.4
20260510053018 49 126 0.0 0.0 0.00 0.00 0.00 93 1011.4
20260510053004 50 0 0.0 0.0 0.00 0.00 0.00 93 1011.0
20260510052903 50 127 0.0 0.0 0.00 0.00 0.00 93 1011.4
20260510052804 50 0 0.0 0.0 0.00 0.00 0.00 93 1010.9
20260510052605 50 0 0.0 0.0 0.00 0.00 0.00 93 1011.0
20260510052204 50 0 0.0 0.0 0.00 0.00 0.00 93 1011.1
20260510052004 50 0 0.0 0.0 0.00 0.00 0.00 93 1011.0
20260510051904 50 127 0.0 0.0 0.00 0.00 0.00 93 1011.5
20260510051804 50 0 0.0 0.0 0.00 0.00 0.00 93 1011.0
20260510051604 50 0 0.0 0.0 0.00 0.00 0.00 93 1011.0
20260510051537 49 127 0.0 0.0 0.00 0.00 0.00 93 1011.5
20260510051403 50 127 0.0 0.0 0.00 0.00 0.00 93 1011.5
20260510051204 50 0 0.0 0.0 0.00 0.00 0.00 93 1011.1
20260510051004 50 0 0.0 0.0 0.00 0.00 0.00 93 1011.1
20260510050903 50 127 0.0 0.0 0.00 0.00 0.00 93 1011.6
20260510050803 50 0 0.0 0.0 0.00 0.00 0.00 93 1011.1
20260510050604 50 0 0.0 0.0 0.00 0.00 0.00 93 1011.1
20260510050403 50 127 0.0 0.0 0.00 0.00 0.00 93 1011.6
20260510050204 50 0 0.0 0.0 0.00 0.00 0.00 93 1011.1
20260510050038 49 127 0.0 0.0 0.00 0.00 0.00 93 1011.7
20260510050005 50 0 0.0 0.0 0.00 0.00 0.00 93 1011.1
20260510045904 50 127 0.0 0.0 0.00 0.00 0.00 93 1011.7
20260510045803 50 0 0.0 0.0 0.00 0.00 0.00 93 1011.2
20260510045604 50 0 0.0 0.0 0.00 0.00 0.00 93 1011.2
20260510045205 50 0 0.0 0.0 0.00 0.00 0.00 93 1011.1
20260510045004 50 0 0.0 0.0 0.00 0.00 0.00 93 1011.1
20260510044903 50 127 0.0 0.0 0.00 0.00 0.00 93 1011.6
20260510044543 49 126 0.0 0.0 0.00 0.00 0.00 93 1011.7
20260510044511 50 127 0.0 0.0 0.00 0.00 0.00 93 1011.7
20260510044404 50 0 0.0 0.0 0.00 0.00 0.00 93 1011.2
20260510044204 50 0 0.0 0.0 0.00 0.00 0.00 93 1011.2
20260510043905 50 127 0.0 0.0 0.00 0.00 0.00 93 1011.7
20260510043804 50 0 0.0 0.0 0.00 0.00 0.00 93 1011.3
20260510043604 50 0 0.0 0.0 0.00 0.00 0.00 93 1011.2
20260510043404 50 127 0.0 0.0 0.00 0.00 0.00 93 1011.7
20260510043205 50 0 0.0 0.0 0.00 0.00 0.00 93 1011.3
20260510043050 50 126 0.0 0.0 0.00 0.00 0.00 93 1011.8
20260510043010 50 126 0.0 0.0 0.00 0.00 0.00 93 1011.8
20260510043004 50 0 0.0 0.0 0.00 0.00 0.00 93 1011.3
20260510042605 50 0 0.0 0.0 0.00 0.00 0.00 93 1011.2
20260510042404 50 0 0.0 0.0 0.00 0.00 0.00 93 1011.2
20260510042204 50 0 0.0 0.0 0.00 0.00 0.00 92 1011.2
20260510042004 50 0 0.0 0.0 0.00 0.00 0.00 92 1011.2
20260510041904 50 126 0.0 0.0 0.00 0.00 0.00 92 1011.7
20260510041609 50 127 0.0 0.0 0.00 0.00 0.00 92 1011.6
20260510041604 50 0 0.0 0.0 0.00 0.00 0.00 92 1011.1
20260510041517 50 126 0.0 0.0 0.00 0.00 0.00 92 1011.7
20260510041404 50 0 0.0 0.0 0.00 0.00 0.00 93 1011.1
20260510041204 50 0 0.0 0.0 0.00 0.00 0.00 93 1011.2
20260510041004 50 0 0.0 0.0 0.00 0.00 0.00 92 1011.2
20260510040903 50 127 0.0 0.0 0.00 0.00 0.00 92 1011.7
20260510040804 50 0 0.0 0.0 0.00 0.00 0.00 92 1011.2
20260510040604 50 0 0.0 0.0 0.00 0.00 0.00 92 1011.2
20260510040404 50 127 0.0 0.0 0.00 0.00 0.00 92 1011.7
20260510040204 50 0 0.0 0.0 0.00 0.00 0.00 92 1011.2
20260510040057 50 126 0.0 0.0 0.00 0.00 0.00 92 1011.7
20260510040022 50 127 0.0 0.0 0.00 0.00 0.00 92 1011.8
20260510040006 50 0 0.0 0.0 0.00 0.00 0.00 92 1011.3
20260510035903 50 127 0.0 0.0 0.00 0.00 0.00 92 1011.8
20260510035805 50 0 0.0 0.0 0.00 0.00 0.00 92 1011.3
20260510035604 50 0 0.0 0.0 0.00 0.00 0.00 92 1011.4
20260510035405 50 0 0.0 0.0 0.00 0.00 0.00 92 1011.3
20260510035204 51 0 0.0 0.0 0.00 0.00 0.00 92 1011.4
20260510035004 51 0 0.0 0.0 0.00 0.00 0.00 92 1011.4
20260510034904 51 127 0.0 0.0 0.00 0.00 0.00 92 1011.8
20260510034605 51 0 0.0 0.0 0.00 0.00 0.00 92 1011.4
20260510034526 50 126 0.0 0.0 0.00 0.00 0.00 92 1011.9
20260510034404 51 127 0.0 0.0 0.00 0.00 0.00 92 1011.9
20260510034205 51 0 0.0 0.0 0.00 0.00 0.00 92 1011.3
20260510033904 51 127 0.0 0.0 0.00 0.00 0.00 92 1011.8
20260510033605 51 0 0.0 0.0 0.00 0.00 0.00 92 1011.3
20260510033036 50 127 0.0 0.0 0.00 0.00 0.00 91 1011.8
20260510033004 51 0 0.0 0.0 0.00 0.00 0.00 91 1011.3
20260510032905 51 127 0.0 0.0 0.00 0.00 0.00 91 1011.8
20260510032804 51 0 0.0 0.0 0.00 0.00 0.00 91 1011.3
20260510032604 51 0 0.0 0.0 0.00 0.00 0.00 91 1011.3
20260510032404 51 0 0.0 0.0 0.00 0.00 0.00 91 1011.2
20260510032204 51 0 0.0 0.0 0.00 0.00 0.00 91 1011.2
20260510032004 51 0 0.0 0.0 0.00 0.00 0.00 91 1011.2
20260510031904 51 127 0.0 0.0 0.00 0.00 0.00 91 1011.7
20260510031604 51 0 0.0 0.0 0.00 0.00 0.00 91 1011.2
20260510031541 51 126 0.0 0.0 0.00 0.00 0.00 91 1011.7
20260510031504 51 127 0.0 0.0 0.00 0.00 0.00 91 1011.7
20260510031405 51 0 0.0 0.0 0.00 0.00 0.00 91 1011.2
20260510031005 51 0 0.0 0.0 0.00 0.00 0.00 91 1011.1
20260510030904 51 127 0.0 0.0 0.00 0.00 0.00 91 1011.6
20260510030804 51 0 0.0 0.0 0.00 0.00 0.00 91 1011.1
20260510030205 51 0 0.0 0.0 0.00 0.00 0.00 91 1011.1
20260510030051 51 127 0.0 0.0 0.00 0.00 0.00 91 1011.6
20260510030011 51 127 0.0 0.0 0.00 0.00 0.00 91 1011.7
20260510025904 51 127 0.0 0.0 0.00 0.00 0.00 91 1011.6
20260510025805 51 0 0.0 0.0 0.00 0.00 0.00 91 1011.2
20260510025605 51 0 0.0 0.0 0.00 0.00 0.00 91 1011.2
20260510025404 52 0 0.0 0.0 0.00 0.00 0.00 91 1011.2
20260510025204 52 0 0.0 0.0 0.00 0.00 0.00 91 1011.2
20260510025005 52 0 0.0 0.0 0.00 0.00 0.00 91 1011.2
20260510024904 52 127 0.0 0.0 0.00 0.00 0.00 91 1011.6
20260510024605 52 0 0.0 0.0 0.00 0.00 0.00 91 1011.2
20260510024557 51 127 0.0 0.0 0.00 0.00 0.00 91 1011.6
20260510024514 51 127 0.0 0.0 0.00 0.00 0.00 90 1011.6
20260510024405 52 0 0.0 0.0 0.00 0.00 0.00 90 1011.2
20260510024204 52 0 0.0 0.0 0.00 0.00 0.00 90 1011.1
20260510024004 52 0 0.0 0.0 0.00 0.00 0.00 90 1011.1
20260510023805 52 0 0.0 0.0 0.00 0.00 0.00 90 1011.0
20260510023603 52 0 0.0 0.0 0.00 0.00 0.00 90 1011.0
20260510023405 52 0 0.0 0.0 0.00 0.00 0.00 90 1010.9
20260510023204 52 0 0.0 0.0 0.00 0.00 0.00 90 1010.9
20260510023052 51 127 0.0 0.0 0.00 0.00 0.00 90 1011.4
20260510023015 51 127 0.0 0.0 0.00 0.00 0.00 90 1011.3
20260510022904 52 127 0.0 0.0 0.00 0.00 0.00 90 1011.3
20260510022804 52 0 0.0 0.0 0.00 0.00 0.00 90 1010.9
20260510022604 52 0 0.0 0.0 0.00 0.00 0.00 90 1010.9
20260510022404 52 127 0.0 0.0 0.00 0.00 0.00 90 1011.4
20260510022204 52 0 0.0 0.0 0.00 0.00 0.00 90 1010.9
20260510022004 52 0 0.0 0.0 0.00 0.00 0.00 90 1010.9
20260510021903 52 127 0.0 0.0 0.00 0.00 0.00 90 1011.3
20260510021804 52 0 0.0 0.0 0.00 0.00 0.00 90 1010.9
20260510021604 52 0 0.0 0.0 0.00 0.00 0.00 90 1010.9
20260510021558 52 127 0.0 0.0 0.00 0.00 0.00 90 1011.3
20260510021520 52 127 0.0 0.0 0.00 0.00 0.00 90 1011.3
20260510021004 52 0 0.0 0.0 0.00 0.00 0.00 89 1010.9
20260510020904 52 127 0.0 0.0 0.00 0.00 0.00 89 1011.3
20260510020804 52 0 0.0 0.0 0.00 0.00 0.00 89 1011.0
20260510020604 52 0 0.0 0.0 0.00 0.00 0.00 89 1011.0
20260510020404 52 127 0.0 0.0 0.00 0.00 0.00 89 1011.4
20260510020204 52 0 0.0 0.0 0.00 0.00 0.00 89 1011.0
20260510020032 52 127 0.0 0.0 0.00 0.00 0.00 89 1011.3
20260510020005 52 0 0.0 0.0 0.00 0.00 0.00 89 1011.0
20260510015804 52 0 0.0 0.0 0.00 0.00 0.00 89 1010.9
20260510015405 52 0 0.0 0.0 0.00 0.00 0.00 89 1011.0
20260510014904 52 127 0.0 0.0 0.00 0.00 0.00 89 1011.2
20260510014804 52 0 0.0 0.0 0.00 0.00 0.00 89 1010.8
20260510014604 52 0 0.0 0.0 0.00 0.00 0.00 89 1010.8
20260510014535 52 127 0.0 0.0 0.00 0.00 0.00 89 1011.2
20260510014404 52 0 0.0 0.0 0.00 0.00 0.00 88 1010.8
20260510014203 53 0 0.0 0.0 0.00 0.00 0.00 88 1010.7
20260510014003 53 0 0.0 0.0 0.00 0.00 0.00 88 1010.7
20260510013903 53 127 0.0 0.0 0.00 0.00 0.00 88 1011.2
20260510013802 53 0 0.0 0.0 0.00 0.00 0.00 88 1010.7
20260510013603 53 0 0.0 0.0 0.00 0.00 0.00 88 1010.7
20260510013403 53 127 0.0 0.0 0.00 0.00 0.00 88 1011.1
20260510013203 53 0 0.0 0.0 0.00 0.00 0.00 88 1010.7
20260510013101 52 126 0.0 0.0 0.00 0.00 0.00 88 1011.1
20260510013010 52 127 0.0 0.0 0.00 0.00 0.00 88 1011.0
20260510013002 53 0 0.0 0.0 0.00 0.00 0.00 88 1010.6
20260510012904 53 127 0.0 0.0 0.00 0.00 0.00 88 1011.0
20260510012803 53 0 0.0 0.0 0.00 0.00 0.00 88 1010.6
20260510012604 53 0 0.0 0.0 0.00 0.00 0.00 88 1010.5
20260510012403 53 0 0.0 0.0 0.00 0.00 0.00 87 1010.5
20260510012204 53 0 0.0 0.0 0.00 0.00 0.00 87 1010.5
20260510012003 53 0 0.0 0.0 0.00 0.00 0.00 87 1010.5
20260510011902 53 127 0.0 0.0 0.00 0.00 0.00 87 1010.9
20260510011803 53 0 0.0 0.0 0.00 0.00 0.00 87 1010.4
20260510011603 53 0 0.0 0.0 0.00 0.00 0.00 87 1010.4
20260510011551 53 127 0.0 0.0 0.00 0.00 0.00 87 1010.9
20260510011523 53 126 0.0 0.0 0.00 0.00 0.00 87 1010.9
20260510011403 53 127 0.0 0.0 0.00 0.00 0.00 87 1010.8
20260510011203 53 0 0.0 0.0 0.00 0.00 0.00 87 1010.4
20260510011003 53 0 0.0 0.0 0.00 0.00 0.00 86 1010.3
20260510010903 53 127 0.0 0.0 0.00 0.00 0.00 86 1010.7
20260510010803 53 0 0.0 0.0 0.00 0.00 0.00 86 1010.3
20260510010603 54 0 0.0 0.0 0.00 0.00 0.00 86 1010.2
20260510010403 54 0 0.0 0.0 0.00 0.00 0.00 86 1010.2
20260510010104 53 126 0.0 0.0 0.00 0.00 0.00 86 1010.6
20260510010024 53 127 0.0 0.0 0.00 0.00 0.00 86 1010.6
20260510010004 54 0 0.0 0.0 0.00 0.00 0.00 86 1010.2
20260510005802 54 0 0.0 0.0 0.00 0.00 0.00 85 1010.2
20260510005604 54 0 0.0 0.0 0.00 0.00 0.00 85 1010.2
20260510005403 54 127 0.0 0.0 0.00 0.00 0.00 85 1010.7
20260510005203 54 0 0.0 0.0 0.00 0.00 0.00 85 1010.1
20260510005004 54 0 0.0 0.0 0.00 0.00 0.00 85 1010.1
20260510004903 54 127 0.0 0.0 0.00 0.00 0.00 85 1010.6
20260510004804 54 0 0.0 0.0 0.00 0.00 0.00 85 1010.1
20260510004603 54 0 0.0 0.0 0.00 0.00 0.00 85 1010.0
20260510004528 54 126 0.0 0.0 0.00 0.00 0.00 85 1010.5
20260510004402 54 127 0.0 0.0 0.00 0.00 0.00 84 1010.5
20260510004003 55 0 0.0 0.0 0.00 0.00 0.00 84 1010.1
20260510003902 55 127 0.0 0.0 0.00 0.00 0.00 84 1010.5
20260510003803 55 0 0.0 0.0 0.00 0.00 0.00 84 1010.0
20260510003603 55 0 0.0 0.0 0.00 0.00 0.00 83 1010.0
20260510003403 55 127 0.0 0.0 0.00 0.00 0.00 83 1010.4
20260510003203 55 0 0.0 0.0 0.00 0.00 0.00 83 1009.9
20260510003043 55 127 0.0 0.0 0.00 0.00 0.00 83 1010.4
20260510003004 55 0 0.0 0.0 0.00 0.00 0.00 83 1009.9
20260510002903 55 127 0.0 0.0 0.00 0.00 0.00 83 1010.4
20260510002803 55 0 0.0 0.0 0.00 0.00 0.00 82 1010.0
20260510002602 55 0 0.0 0.0 0.00 0.00 0.00 82 1009.9
20260510002403 56 0 0.0 0.0 0.00 0.00 0.00 82 1009.9
20260510002003 56 0 0.0 0.0 0.00 0.00 0.00 82 1010.0
20260510001902 56 125 0.0 0.0 0.00 0.00 0.00 81 1010.4
20260510001555 56 125 0.0 0.0 0.00 0.00 0.00 81 1010.3
20260510001510 56 125 0.0 0.0 0.00 0.00 0.00 81 1010.4
20260510001403 56 0 0.0 0.0 0.00 0.00 0.00 81 1009.9
20260510001204 56 0 0.0 0.0 0.00 0.00 0.00 81 1010.0
20260510000903 57 125 0.0 0.0 0.00 0.00 0.00 80 1010.4
20260510000803 57 0 0.0 0.0 0.00 0.00 0.00 80 1010.0
20260510000603 57 0 0.0 0.0 0.00 0.00 0.00 80 1010.0
20260510000404 57 125 0.0 0.0 0.00 0.00 0.00 80 1010.4
20260510000204 57 0 0.0 0.0 0.00 0.00 0.00 79 1009.9
20260510000015 57 125 0.0 0.0 0.00 0.00 0.00 79 1010.3
20260510000003 58 0 0.0 0.0 0.00 0.00 0.00 78 1009.9
20260509235902 58 125 0.0 0.0 0.00 0.00 0.00 78 1010.3
20260509235603 58 0 0.0 0.0 0.00 0.00 0.00 78 1009.9
20260509235403 58 0 0.0 0.0 0.00 0.00 0.00 78 1009.9
20260509235203 58 0 0.0 0.0 0.00 0.00 0.00 78 1009.9
20260509234903 58 125 0.0 0.0 0.00 0.00 0.00 78 1010.3
20260509234803 58 0 0.0 0.0 0.00 0.00 0.00 78 1009.9
20260509234602 58 0 0.0 0.0 0.00 0.00 0.00 77 1009.8
20260509234526 58 125 0.0 0.0 0.00 0.00 0.00 77 1010.3
20260509234404 58 0 0.0 0.0 0.00 0.00 0.00 77 1009.9
20260509234203 59 0 0.0 0.0 0.00 0.00 0.00 77 1009.9
20260509234003 59 0 0.0 0.0 0.00 0.00 0.00 76 1009.9
20260509233902 59 178 0.0 0.0 0.00 0.00 0.00 76 1010.3
20260509233804 59 0 0.0 0.0 0.00 0.00 0.00 76 1009.9
20260509233604 59 0 0.0 0.0 0.00 0.00 0.00 76 1009.9
20260509233403 59 0 0.0 0.0 0.00 0.00 0.00 76 1010.0
20260509233204 59 0 0.0 0.0 0.00 0.00 0.00 76 1009.9
20260509233031 59 178 0.0 0.0 0.00 0.00 0.00 75 1010.4
20260509233003 59 0 0.0 0.0 0.00 0.00 0.00 75 1009.9
20260509232904 59 178 0.0 0.0 0.00 0.00 0.00 75 1010.3
20260509232803 59 0 0.0 0.0 0.00 0.00 0.00 75 1009.9
20260509232403 60 0 0.0 0.0 0.00 0.00 0.00 74 1009.9
20260509232203 60 0 0.0 0.0 0.00 0.00 0.00 74 1009.9
20260509232003 60 0 0.0 0.0 0.00 0.00 0.00 74 1009.9
20260509231902 60 55 0.0 0.0 0.00 0.00 0.00 74 1010.3
20260509231803 60 0 0.0 0.0 0.00 0.00 0.00 74 1009.8
20260509231603 60 0 0.0 0.0 0.00 0.00 0.00 74 1009.9
20260509231545 60 55 0.0 0.0 0.00 0.00 0.00 74 1010.3
20260509231508 60 55 0.0 0.0 0.00 0.00 0.00 73 1010.3
20260509231404 60 0 0.0 0.0 0.00 0.00 0.00 75 1009.9
20260509230902 60 55 0.0 0.0 0.00 0.00 0.00 73 1010.3
20260509230803 60 0 0.0 0.0 0.00 0.00 0.00 73 1009.9
20260509230603 60 0 0.0 0.0 0.00 0.00 0.00 74 1009.9
20260509230403 60 55 0.0 0.0 0.00 0.00 0.00 74 1010.2
20260509230203 60 0 0.0 0.0 0.00 0.00 0.00 74 1009.7
20260509230053 60 55 0.0 0.0 0.00 0.00 0.00 73 1010.2
20260509230018 60 55 0.0 0.0 0.00 0.00 0.00 73 1010.2
20260509230004 60 0 0.0 0.0 0.00 0.00 0.00 73 1009.8
20260509225904 60 55 0.0 0.0 0.00 0.00 0.00 72 1010.2
20260509225802 60 0 0.0 0.0 0.00 0.00 0.00 72 1009.7
20260509225603 60 0 0.0 0.0 0.00 0.00 0.00 73 1009.8
20260509225404 60 0 0.0 0.0 0.00 0.00 0.00 73 1009.8
20260509225203 60 0 0.0 0.0 0.00 0.00 0.00 73 1009.7
20260509225003 60 0 0.0 0.0 0.00 0.00 0.00 73 1009.8
20260509224803 60 0 0.0 0.0 0.00 0.00 0.00 72 1009.8
20260509224604 61 0 0.0 0.0 0.00 0.00 0.00 72 1009.8
20260509224528 60 55 0.0 0.0 0.00 0.00 0.00 72 1010.3
20260509224404 61 0 0.0 0.0 0.00 0.00 0.00 73 1009.8
20260509224202 61 0 0.0 0.0 0.00 0.00 0.00 75 1009.8
20260509224003 60 0 0.0 0.0 0.00 0.00 0.00 74 1009.8
20260509223903 61 55 0.0 0.0 0.00 0.00 0.00 73 1010.2
20260509223803 60 0 0.0 0.0 0.00 0.00 0.00 72 1009.8
20260509223603 60 0 0.0 0.0 0.00 0.00 0.00 73 1009.7
20260509223403 61 0 0.0 0.0 0.00 0.00 0.00 73 1009.7
20260509223204 61 0 0.0 0.0 0.00 0.00 0.00 73 1009.6
20260509223035 60 57 0.0 0.0 0.00 0.00 0.00 72 1010.1
20260509223003 61 0 0.0 0.0 0.00 0.00 0.00 74 1009.7
20260509222902 61 57 0.0 0.0 0.00 0.00 0.00 73 1010.0
20260509222803 61 0 0.0 0.0 0.00 0.00 0.00 73 1009.6
20260509222603 61 0 0.0 0.0 0.00 0.00 0.00 73 1009.7
20260509222403 61 0 0.0 0.0 0.00 0.00 0.00 74 1009.6
20260509222203 61 0 0.0 0.0 0.00 0.00 0.00 74 1009.6
20260509221803 61 0 0.0 0.9 0.00 0.00 0.00 74 1009.6
20260509221603 61 0 0.0 0.9 0.00 0.00 0.00 72 1009.7
20260509221601 60 87 0.0 0.0 0.00 0.00 0.00 72 1010.1
20260509221513 60 88 0.0 0.0 0.00 0.00 0.00 72 1010.1
20260509221403 61 0 0.0 0.0 0.00 0.00 0.00 73 1009.7
20260509221004 61 0 0.0 0.0 0.00 0.00 0.00 73 1009.8
20260509220902 61 88 0.0 0.0 0.00 0.00 0.00 73 1010.2
20260509220404 61 0 0.0 0.0 0.00 0.00 0.00 72 1009.9
20260509220203 61 0 0.0 0.0 0.00 0.00 0.00 72 1009.9
20260509220058 60 89 0.0 0.0 0.00 0.00 0.00 74 1010.4
20260509220010 60 89 0.0 0.0 0.00 0.00 0.00 73 1010.4
20260509220003 61 0 0.0 0.0 0.00 0.00 0.00 73 1010.0
20260509215903 61 89 0.0 0.0 0.00 0.00 0.00 73 1010.4
20260509215803 61 0 0.0 0.0 0.00 0.00 0.00 73 1010.0
20260509215603 61 0 0.0 0.0 0.00 0.00 0.00 72 1010.0
20260509215403 61 0 0.0 0.0 0.00 0.00 0.00 73 1010.0
20260509215203 61 0 0.0 0.0 0.00 0.00 0.00 74 1010.0
20260509215004 61 0 0.0 0.0 0.00 0.00 0.00 74 1010.0
20260509214902 61 89 0.0 0.0 0.00 0.00 0.00 73 1010.4
20260509214803 61 0 0.0 0.0 0.00 0.00 0.00 73 1010.0
20260509214603 61 0 0.0 0.0 0.00 0.00 0.00 74 1010.0
20260509214543 60 89 0.0 0.0 0.00 0.00 0.00 72 1010.3
20260509214504 60 88 0.0 0.0 0.00 0.00 0.00 72 1010.3
20260509214403 61 0 0.0 0.0 0.00 0.00 0.00 72 1009.9
20260509214204 61 0 0.0 0.0 0.00 0.00 0.00 73 1010.0
20260509214003 61 0 0.0 0.0 0.00 0.00 0.00 72 1009.9
20260509213903 61 89 0.0 0.0 0.00 0.00 0.00 72 1010.3
20260509213803 61 0 0.0 0.0 0.00 0.00 0.00 73 1009.9
20260509213403 61 73 0.0 0.0 0.00 0.00 0.00 72 1010.3
20260509213038 60 72 0.0 0.0 0.00 0.00 0.00 74 1010.3
20260509213004 60 73 0.0 0.0 0.00 0.00 0.00 74 1010.3
20260509212904 61 73 0.0 0.0 0.00 0.00 0.00 74 1010.3
20260509212603 61 0 0.0 0.0 0.00 0.00 0.00 73 1009.9
20260509212403 60 0 0.0 0.0 0.00 0.00 0.00 74 1009.9
20260509212203 61 0 0.0 0.0 0.00 0.00 0.00 74 1009.9
20260509212003 61 0 0.0 0.0 0.00 0.00 0.00 74 1010.0
20260509211545 60 73 0.0 0.0 0.00 0.00 0.00 73 1010.4
20260509211505 60 73 0.0 0.0 0.00 0.00 0.00 73 1010.3
20260509211403 61 73 0.0 0.0 0.00 0.00 0.00 72 1010.3
20260509211203 60 0 0.0 0.0 0.00 0.00 0.00 74 1010.0
20260509211003 60 0 0.0 0.0 0.00 0.00 0.00 71 1010.0
20260509210902 61 73 0.0 0.0 0.00 0.00 0.00 72 1010.3
20260509210604 60 0 0.0 0.0 0.00 0.00 0.00 72 1010.0
20260509210403 60 0 0.0 0.0 0.00 0.00 0.00 71 1010.0
20260509210203 61 0 0.0 0.0 0.00 0.00 0.00 70 1009.9
20260509210055 60 74 0.0 0.0 0.00 0.00 0.00 71 1010.3
20260509210009 60 74 0.0 0.0 0.00 0.00 0.00 70 1010.3
20260509210003 61 0 0.0 0.0 0.00 0.00 0.00 70 1009.9
20260509205803 60 0 0.0 0.0 0.00 0.00 0.00 71 1009.9
20260509205604 60 0 0.0 0.0 0.00 0.00 0.00 73 1009.9
20260509205403 60 74 0.0 0.0 0.00 0.00 0.00 72 1010.3
20260509205203 60 0 0.0 0.0 0.00 0.00 0.00 71 1009.9
20260509205003 60 0 0.0 0.0 0.00 0.00 0.00 72 1009.9
20260509204903 60 74 0.0 0.0 0.00 0.00 0.00 72 1010.3
20260509204804 60 0 0.0 0.0 0.00 0.00 0.00 73 1009.9
20260509204603 60 0 0.0 0.0 0.00 0.00 0.00 73 1009.9
20260509204544 60 74 0.0 0.0 0.00 0.00 0.00 73 1010.3
20260509204507 60 74 0.0 0.0 0.00 0.00 0.00 73 1010.3
20260509204403 60 0 0.0 0.0 0.00 0.00 0.00 71 1010.0
20260509204204 60 0 0.0 0.0 0.00 0.00 0.00 72 1010.0
20260509204003 60 0 0.0 0.0 0.00 0.00 0.00 73 1009.9
20260509203903 60 75 0.0 0.0 0.00 0.00 0.00 73 1010.3
20260509203803 60 0 0.0 0.0 0.00 0.00 0.00 73 1009.9
20260509203403 60 75 0.0 0.0 0.00 0.00 0.00 75 1010.3
20260509203203 60 0 0.0 0.0 0.00 0.00 0.00 74 1010.0
20260509203049 60 75 0.0 0.0 0.00 0.00 0.00 74 1010.3
20260509203007 60 75 0.0 0.0 0.00 0.00 0.00 74 1010.3
20260509203003 60 0 0.0 0.0 0.00 0.00 0.00 74 1009.9
20260509202902 60 75 0.0 0.0 0.00 0.00 0.00 72 1010.3
20260509202203 60 0 0.0 0.0 0.00 0.00 0.00 72 1009.9
20260509202003 61 0 0.0 0.0 0.00 0.00 0.00 70 1010.0
20260509201903 61 75 0.0 0.0 0.00 0.00 0.00 72 1010.3
20260509201803 61 0 0.0 0.0 0.00 0.00 0.00 72 1010.0
20260509201603 61 0 0.0 0.0 0.00 0.00 0.00 70 1010.1
20260509201543 60 75 0.0 0.0 0.00 0.00 0.00 70 1010.4
20260509201507 60 75 0.0 0.0 0.00 0.00 0.00 71 1010.4
20260509201403 61 0 0.0 0.0 0.00 0.00 0.00 71 1010.1
20260509201203 61 0 0.0 0.0 0.00 0.00 0.00 73 1010.1
20260509201005 61 0 0.0 0.0 0.00 0.00 0.00 73 1010.0
20260509200903 61 75 0.0 0.0 0.00 0.00 0.00 72 1010.4
20260509200803 61 0 0.0 0.0 0.00 0.00 0.00 72 1010.1
20260509200603 61 0 0.0 0.0 0.00 0.00 0.00 72 1010.1
20260509200403 61 75 0.0 0.0 0.00 0.00 0.00 72 1010.5
20260509200204 61 0 0.0 0.0 0.00 0.00 0.00 72 1010.2
20260509200055 60 75 0.0 0.0 0.00 0.00 0.00 72 1010.6
20260509200013 60 75 0.0 0.0 0.00 0.00 0.00 72 1010.6
20260509200004 61 0 0.0 0.0 0.00 0.00 0.00 72 1010.3
20260509195904 61 75 0.0 0.0 0.00 0.00 0.00 70 1010.6
20260509195804 61 0 0.0 0.0 0.00 0.00 0.00 71 1010.2
20260509195603 61 0 0.0 0.0 0.00 0.00 0.00 70 1010.3
20260509195404 61 75 0.0 0.0 0.00 0.00 0.00 69 1010.6
20260509195204 61 0 0.0 0.0 0.00 0.00 0.00 69 1010.2
20260509195003 61 0 0.0 0.0 0.00 0.00 0.00 68 1010.3
20260509194902 61 75 0.0 0.0 0.00 0.00 0.00 70 1010.7
20260509194803 61 0 0.0 0.0 0.00 0.00 0.00 69 1010.3
20260509194603 61 0 0.0 0.0 0.00 0.00 0.00 69 1010.3
20260509194554 61 107 0.0 0.0 0.00 0.00 0.00 69 1010.6
20260509194519 61 107 0.0 0.0 0.00 0.00 0.00 68 1010.6
20260509194403 61 107 0.0 0.0 0.00 0.00 0.00 66 1010.6
20260509194204 62 0 0.0 0.0 0.00 0.00 0.00 67 1010.2
20260509194004 62 0 0.0 0.0 0.00 0.00 0.00 72 1010.3
20260509193903 61 107 0.0 0.0 0.00 0.00 0.00 70 1010.6
20260509193803 61 0 0.0 0.0 0.00 0.00 0.00 70 1010.3
20260509193604 61 0 0.0 0.0 0.00 0.00 0.00 70 1010.4
20260509193403 61 0 0.0 0.0 0.00 0.00 0.00 70 1010.4
20260509193126 61 107 0.0 0.0 0.00 0.00 0.00 69 1010.7
20260509193025 61 107 0.0 0.0 0.00 0.00 0.00 68 1010.7
20260509193003 61 0 0.0 0.0 0.00 0.00 0.00 67 1010.3
20260509192902 62 107 0.0 0.9 0.00 0.00 0.00 68 1010.7
20260509192603 62 0 0.0 0.9 0.00 0.00 0.00 68 1010.4
20260509192203 62 0 0.0 0.0 0.00 0.00 0.00 66 1010.3
20260509192004 62 0 0.0 0.0 0.00 0.00 0.00 67 1010.3
20260509191904 62 107 0.0 1.7 0.00 0.00 0.00 70 1010.7
20260509191803 62 0 0.0 1.7 0.00 0.00 0.00 69 1010.4
20260509191531 62 107 0.0 0.0 0.00 0.00 0.00 68 1010.8
20260509191403 62 107 0.0 0.0 0.00 0.00 0.00 68 1010.6
20260509191204 62 0 0.0 0.0 0.00 0.00 0.00 68 1010.2
20260509191003 62 0 0.0 0.0 0.00 0.00 0.00 71 1010.3
20260509190902 62 74 0.0 0.0 0.00 0.00 0.00 71 1010.7